"2010-04-28 00:00:00",63820,6.984,169.3,0.421,0.121,15.8,106.5872,16.14,17.09,22.28,0,110.6,13.29,16.95,131.3
"2010-04-28 00:00:30",63821,7.072,171,1.758,0.199,15.79,106.5861,16.13,17.1,22.21,0,110.5,13.29,16.94,133.0
"2010-04-28 00:01:00",63822,7.306,172.8,1.336,0.151,15.75,106.585,16.13,17.08,22.41,0,110.6,13.29,16.94,134.8
"2010-04-28 00:01:30",63823,7.245,174.5,1.733,0.302,15.68,106.5825,16.13,17.09,22.69,0,110.5,13.29,16.93,136.5
"2010-04-28 00:02:00",63824,6.976,172.6,1.124,0.112,15.68,106.5836,16.13,17.08,23.17,0,110.6,13.29,16.94,134.6
"2010-04-28 00:02:30",63825,7.085,172.4,1.793,0.206,15.74,106.5819,16.12,17.08,23.59,0,110.5,13.29,16.93,134.4
"2010-04-28 00:03:00",63826,7.041,171.7,1.523,0.174,15.71,106.5819,16.12,17.1,23.45,0,110.6,13.29,16.93,133.7
"2010-04-28 00:03:30",63827,6.819,169.7,1.163,0.116,15.65,106.5777,16.11,17.09,23.48,0,110.5,13.29,16.92,131.7
"2010-04-28 00:04:00",63828,6.729,169.6,1.784,0.153,15.66,106.5777,16.11,17.08,23.56,0,110.5,13.29,16.92,131.6
"2010-04-28 00:04:30",63829,6.968,172.8,1.453,0.189,15.67,106.5751,16.11,17.09,23.89,0,110.6,13.29,16.91,134.8
"2010-04-28 00:05:00",63830,7.344,176.8,1.412,0.194,15.64,106.5774,16.11,17.09,24.15,0,110.5,13.29,16.92,138.8
"2010-04-28 00:05:30",63831,7.344,178.1,1.956,0.137,15.65,106.5782,16.11,17.09,24.02,0,110.6,13.29,16.92,140.1
"2010-04-28 00:06:00",63832,7.278,176.1,1.349,0.169,15.65,106.581,16.12,17.08,24.28,0,110.6,13.29,16.93,138.1
"2010-04-28 00:06:30",63833,7.498,175.3,0.803,0.093,15.67,106.5796,16.12,17.08,24.4,0,110.6,13.29,16.93,137.3
"2010-04-28 00:07:00",63834,7.402,175.8,0.929,0.199,15.67,106.5794,16.12,17.09,24.2,0,110.6,13.29,16.93,137.8
"2010-04-28 00:07:30",63835,7.69,177.5,0.733,0.184,15.66,106.5788,16.12,17.09,24.43,0,110.6,13.29,16.92,139.5
"2010-04-28 00:08:00",63836,7.437,178.5,2.819,0.344,15.63,106.5768,16.11,17.08,24.43,0,110.6,13.29,16.92,140.5
"2010-04-28 00:08:30",63837,7.271,170.7,1.2,0.192,15.67,106.5796,16.12,17.09,24.64,0,110.6,13.29,16.93,132.7
"2010-04-28 00:09:00",63838,7.286,175.5,5.034,0.203,15.65,106.5785,16.11,17.09,24.78,0,110.6,13.28,16.92,137.5
"2010-04-28 00:09:30",63839,7.211,178.9,1.501,0.157,15.67,106.5785,16.11,17.08,24.41,0,110.6,13.28,16.92,140.9
"2010-04-28 00:10:00",63840,7.27,176.8,1.771,0.149,15.68,106.5791,16.12,17.09,24.61,0,110.6,13.28,16.92,138.8
"2010-04-28 00:10:30",63841,7.416,174.7,1.051,0.238,15.69,106.5802,16.12,17.08,24.94,0,110.6,13.28,16.93,136.7
"2010-04-28 00:11:00",63842,7.35,173.8,1.603,0.232,15.7,106.5777,16.11,17.09,25.11,0,110.6,13.28,16.92,135.8
"2010-04-28 00:11:30",63843,7.144,176.4,1.297,0.287,15.71,106.5768,16.11,17.08,25.32,0,110.6,13.28,16.92,138.4
"2010-04-28 00:12:00",63844,6.714,174.4,1.189,0.252,15.68,106.5763,16.11,17.09,25.47,0,110.6,13.28,16.92,136.4
"2010-04-28 00:12:30",63845,6.487,178.5,3.871,0.24,15.68,106.5799,16.12,17.09,25.37,0,110.6,13.28,16.93,140.5
"2010-04-28 00:13:00",63846,7.277,179.3,1.962,0.362,15.67,106.5765,16.11,17.08,25.27,0,110.6,13.28,16.92,141.3
"2010-04-28 00:13:30",63847,6.885,178.5,2.624,0.225,15.73,106.5765,16.11,17.08,25.11,0,110.6,13.28,16.92,140.5
"2010-04-28 00:14:00",63848,6.607,182.1,2.494,0.344,15.77,106.5808,16.12,17.09,24.62,0,110.6,13.28,16.93,144.1
"2010-04-28 00:14:30",63849,6.017,181.4,1.773,0.155,15.68,106.5816,16.12,17.08,24.52,0,110.6,13.28,16.93,143.4
"2010-04-28 00:15:00",63850,6.524,180.5,1.266,0.183,15.56,106.5878,16.14,17.1,24.93,0,110.6,13.28,16.95,142.5
"2010-04-28 00:15:30",63851,6.766,181,2.091,0.119,15.58,106.5898,16.14,17.09,25.29,0,110.6,13.28,16.95,143.0
"2010-04-28 00:16:00",63852,6.73,181.7,1.683,0.16,15.63,106.5901,16.14,17.1,25.75,0,110.6,13.29,16.95,143.7
"2010-04-28 00:16:30",63853,6.801,178.7,1.422,0.323,15.55,106.5901,16.14,17.1,25.97,0,110.6,13.29,16.95,140.7
"2010-04-28 00:17:00",63854,6.838,175.6,1.567,0.14,15.61,106.5901,16.14,17.1,26.14,0,110.6,13.29,16.95,137.6
"2010-04-28 00:17:30",63855,7.234,178.5,1.327,0.139,15.6,106.5901,16.14,17.1,26.39,0,110.6,13.29,16.95,140.5
"2010-04-28 00:18:00",63856,7.306,182.7,1.41,0.221,15.65,106.5901,16.14,17.11,26.48,0,110.6,13.29,16.95,144.7
"2010-04-28 00:18:30",63857,7.176,182.7,1.425,0.178,15.62,106.5898,16.14,17.12,26.48,0,110.6,13.29,16.95,144.7
"2010-04-28 00:19:00",63858,6.695,184.9,1.649,0.157,15.69,106.5898,16.14,17.11,26.63,0,110.6,13.29,16.95,146.9
"2010-04-28 00:19:30",63859,6.9,184,1.683,0.197,15.71,106.5901,16.14,17.12,26.63,0,110.6,13.29,16.95,146.0
"2010-04-28 00:20:00",63860,7.028,184.1,2.059,0.175,15.74,106.5901,16.14,17.12,26.64,0,110.6,13.29,16.95,146.1
"2010-04-28 00:20:30",63861,6.702,183.7,1.836,0.097,15.78,106.5898,16.14,17.14,26.74,0,110.6,13.29,16.95,145.7
"2010-04-28 00:21:00",63862,6.103,186.6,2.552,0.282,15.8,106.5898,16.14,17.13,26.71,0,110.6,13.29,16.95,148.6
"2010-04-28 00:21:30",63863,7.231,177.5,1.449,0.306,15.68,106.5892,16.14,17.13,26.83,0,110.6,13.29,16.95,139.5
"2010-04-28 00:22:00",63864,7.535,180.5,3.857,0.233,15.74,106.5901,16.14,17.13,26.71,0,110.6,13.29,16.95,142.5
"2010-04-28 00:22:30",63865,6.569,179.6,3.425,0.665,15.71,106.5898,16.14,17.14,26.77,0,110.6,13.29,16.95,141.6
"2010-04-28 00:23:00",63866,6.706,176.8,1.578,0.213,15.68,106.5898,16.14,17.13,26.68,0,110.6,13.29,16.95,138.8
"2010-04-28 00:23:30",63867,6.439,176.8,2.728,0.157,15.66,106.5898,16.14,17.13,26.81,0,110.6,13.29,16.95,138.8
"2010-04-28 00:24:00",63868,6.045,176.5,1.414,0.207,15.71,106.5898,16.14,17.14,26.74,0,110.6,13.29,16.95,138.5
"2010-04-28 00:24:30",63869,5.72,181.2,3.44,0.16,15.72,106.5901,16.14,17.14,26.79,0,110.6,13.29,16.95,143.2
"2010-04-28 00:25:00",63870,6.086,182.2,3.002,0.316,15.76,106.5901,16.14,17.13,26.96,0,110.6,13.29,16.95,144.2
"2010-04-28 00:25:30",63871,5.597,179.2,1.77,0.342,15.75,106.5895,16.14,17.14,26.89,0,110.6,13.29,16.95,141.2
"2010-04-28 00:26:00",63872,5.704,183.3,2.323,0.242,15.72,106.5895,16.14,17.12,26.79,0,110.6,13.28,16.95,145.3
"2010-04-28 00:26:30",63873,6.035,182,2.127,0.238,15.73,106.5901,16.14,17.13,26.85,0,110.6,13.28,16.95,144.0
"2010-04-28 00:27:00",63874,5.971,181.7,2.037,0.298,15.75,106.5898,16.14,17.12,26.72,0,110.6,13.28,16.95,143.7
"2010-04-28 00:27:30",63875,6.162,185.2,1.66,0.128,15.77,106.5901,16.14,17.12,26.85,0,110.6,13.28,16.95,147.2
"2010-04-28 00:28:00",63876,6.16,186.6,1.702,0.182,15.76,106.5898,16.14,17.12,26.82,0,110.6,13.28,16.95,148.6
"2010-04-28 00:28:30",63877,5.943,186.3,2.6,0.328,15.82,106.5898,16.14,17.11,26.87,0,110.6,13.28,16.95,148.3
"2010-04-28 00:29:00",63878,5.766,186.1,1.868,0.158,15.83,106.5901,16.14,17.12,27.03,0,110.6,13.28,16.95,148.1
"2010-04-28 00:29:30",63879,5.539,185.5,2.829,0.396,15.86,106.5898,16.14,17.12,27.12,0,110.6,13.28,16.95,147.5
"2010-04-28 00:30:00",63880,5.259,187.8,2.871,0.413,15.87,106.5901,16.14,17.12,26.91,0,110.6,13.28,16.95,149.8
"2010-04-28 00:30:30",63881,5.729,186,2.306,0.165,15.83,106.5901,16.14,17.12,27.39,0,110.6,13.28,16.95,148.0
"2010-04-28 00:31:00",63882,5.584,188,1.606,0.191,15.91,106.5901,16.14,17.11,27.68,0,110.6,13.28,16.95,150.0
"2010-04-28 00:31:30",63883,5.584,186.8,1.431,0.093,15.95,106.5881,16.14,17.11,27.33,0,110.6,13.28,16.95,148.8
"2010-04-28 00:32:00",63884,5.292,180.6,2.776,0.344,16.02,106.5622,16.07,17.08,27.29,0,110.6,13.28,16.88,142.6
"2010-04-28 00:32:30",63885,5.053,181.9,3.148,0.342,15.95,106.5563,16.06,17.08,28.26,0,110.6,13.29,16.87,143.9
"2010-04-28 00:33:00",63886,4.411,188.2,6.205,0.913,15.92,106.5351,16,17.04,29.91,0,110.6,13.29,16.81,150.2
"2010-04-28 00:33:30",63887,3.792,181.6,21.36,0.782,15.74,106.5126,15.95,16.99,31.02,0,110.6,13.29,16.75,143.6
"2010-04-28 00:34:00",63888,2.771,220.9,25.34,1.409,15.5,106.487,15.88,16.94,32.58,0,110.6,13.29,16.69,182.9
"2010-04-28 00:34:30",63889,2.736,271,13,0.882,15.7,106.4577,15.81,16.89,31.74,0,110.6,13.29,16.61,233.0
"2010-04-28 00:35:00",63890,2.195,260.7,7.398,0.757,15.77,106.4549,15.8,16.83,30.21,0,110.6,13.29,16.61,222.7
"2010-04-28 00:35:30",63891,1.507,239,9.48,0.317,15.65,106.4549,15.8,16.79,30.23,0,110.6,13.29,16.61,201.0
"2010-04-28 00:36:00",63892,1.29,217,15.83,0.227,15.62,106.4549,15.8,16.8,30.49,0,110.6,13.29,16.61,179.0
"2010-04-28 00:36:30",63893,0.954,164.2,20.92,0.349,15.62,106.4549,15.8,16.8,30.6,0,110.6,13.29,16.61,126.2
"2010-04-28 00:37:00",63894,2.167,186,16.08,0.562,15.58,106.4549,15.8,16.77,30.71,0,110.6,13.29,16.61,148.0
"2010-04-28 00:37:30",63895,2.998,196.6,10.28,0.309,15.66,106.4549,15.8,16.77,30.2,0,110.6,13.29,16.61,158.6
"2010-04-28 00:38:00",63896,3.028,204,12.25,0.388,15.82,106.4543,15.8,16.79,28.97,0,110.6,13.29,16.60,166.0
"2010-04-28 00:38:30",63897,4.279,241.8,10.86,0.499,15.8,106.4512,15.79,16.78,28.99,0,110.6,13.29,16.60,203.8
"2010-04-28 00:39:00",63898,4.229,240.9,6.86,0.634,15.9,106.4473,15.78,16.78,28.73,0,110.6,13.29,16.59,202.9
"2010-04-28 00:39:30",63899,2.789,261.8,19.16,0.434,15.84,106.443,15.77,16.77,28.69,0,110.6,13.29,16.57,223.8
"2010-04-28 00:40:00",63900,3.151,264.1,12.45,0.781,15.83,106.4292,15.73,16.75,29.24,0,110.6,13.29,16.54,226.1
"2010-04-28 00:40:30",63901,3.244,245.6,8.42,0.366,15.82,106.4216,15.71,16.76,29.21,0,110.6,13.29,16.52,207.6
"2010-04-28 00:41:00",63902,2.938,230.1,5.902,0.18,15.72,106.4211,15.71,16.74,29.75,0,110.6,13.29,16.52,192.1
"2010-04-28 00:41:30",63903,3.01,238.8,8.11,0.111,15.65,106.4211,15.71,16.74,30.14,0,110.6,13.3,16.52,200.8
"2010-04-28 00:42:00",63904,2.515,252.5,4.526,0.303,15.69,106.4211,15.71,16.74,30.34,0,110.6,13.29,16.52,214.5
"2010-04-28 00:42:30",63905,2.447,252.6,2.79,0.158,15.66,106.4208,15.71,16.71,30.64,0,110.6,13.29,16.52,214.6
"2010-04-28 00:43:00",63906,2.893,234.7,9.02,0.45,15.86,106.4104,15.68,16.7,29.92,0,110.6,13.29,16.49,196.7
"2010-04-28 00:43:30",63907,3.182,224.7,12.07,0.286,15.84,106.3915,15.64,16.68,29.73,0,110.6,13.29,16.44,186.7
"2010-04-28 00:44:00",63908,2.692,201,8.27,0.36,15.85,106.3881,15.63,16.67,30.01,0,110.6,13.28,16.43,163.0
"2010-04-28 00:44:30",63909,3.604,189.6,9.17,0.839,15.98,106.3873,15.62,16.66,29.96,0,110.6,13.28,16.43,151.6
"2010-04-28 00:45:00",63910,3.57,191.3,4.903,0.331,16.05,106.3873,15.62,16.65,28.13,0,110.6,13.28,16.43,153.3
"2010-04-28 00:45:30",63911,2.78,191.9,10.44,0.63,15.92,106.3873,15.62,16.65,28.01,0,110.6,13.28,16.43,153.9
"2010-04-28 00:46:00",63912,3.012,238.3,14.54,1.166,16.04,106.3873,15.62,16.65,28.04,0,110.5,13.29,16.43,200.3
"2010-04-28 00:46:30",63913,4.576,232.1,6.351,0.75,16.11,106.3873,15.62,16.64,27.77,0,110.5,13.29,16.43,194.1
"2010-04-28 00:47:00",63914,3.74,235,3.916,0.486,16.03,106.3873,15.62,16.62,27.71,0,110.5,13.29,16.43,197.0
"2010-04-28 00:47:30",63915,3.46,237.5,15.45,0.833,15.97,106.3842,15.62,16.63,28.44,0,110.5,13.29,16.42,199.5
"2010-04-28 00:48:00",63916,4.459,220.5,9.69,0.48,15.93,106.3715,15.58,16.6,28.87,0,110.5,13.29,16.39,182.5
"2010-04-28 00:48:30",63917,3.686,200.2,8.15,0.603,15.94,106.3645,15.57,16.59,28.49,0,110.5,13.3,16.37,162.2
"2010-04-28 00:49:00",63918,3.337,225.3,6.58,0.816,15.9,106.3546,15.54,16.6,28.23,0,110.5,13.3,16.35,187.3
"2010-04-28 00:49:30",63919,2.533,217.4,26.55,1.315,15.86,106.3535,15.54,16.57,28.29,0,110.5,13.3,16.34,179.4
"2010-04-28 00:50:00",63920,4.24,240.4,6.364,0.283,15.91,106.3535,15.54,16.58,28.17,0,110.6,13.3,16.34,202.4
"2010-04-28 00:50:30",63921,4.367,252.9,5.24,0.418,15.94,106.3535,15.54,16.58,28.4,0,110.6,13.3,16.34,214.9
"2010-04-28 00:51:00",63922,4.905,239.6,10.21,0.578,15.83,106.3535,15.54,16.58,29.16,0,110.6,13.3,16.34,201.6
"2010-04-28 00:51:30",63923,5.142,226.3,4.86,0.313,15.89,106.3535,15.54,16.56,29.15,0,110.6,13.3,16.34,188.3
"2010-04-28 00:52:00",63924,5.918,212,3.528,0.442,15.89,106.3532,15.54,16.56,29.03,0,110.6,13.3,16.34,174.0
"2010-04-28 00:52:30",63925,4.866,240.7,21.57,0.438,15.45,106.3357,15.49,16.55,31.11,0,110.6,13.3,16.30,202.7
"2010-04-28 00:53:00",63926,5.173,241.7,3.716,0.516,15.91,106.32,15.45,16.53,30.22,0,110.6,13.3,16.26,203.7
"2010-04-28 00:53:30",63927,4.324,227.7,4.851,0.552,15.77,106.3197,15.45,16.54,29.46,0,110.6,13.3,16.26,189.7
"2010-04-28 00:54:00",63928,2.336,225.4,8.8,0.483,15.64,106.3197,15.45,16.52,29.4,0,110.6,13.3,16.26,187.4
"2010-04-28 00:54:30",63929,2.28,224.9,11.25,0.222,15.5,106.3197,15.45,16.53,29.8,0,110.6,13.3,16.26,186.9
"2010-04-28 00:55:00",63930,3.319,214.4,5.343,0.772,15.55,106.32,15.45,16.52,29.71,0,110.5,13.3,16.26,176.4
"2010-04-28 00:55:30",63931,5.448,204.1,3.427,0.385,15.61,106.3206,15.45,16.52,30.05,0,110.6,13.3,16.26,166.1
"2010-04-28 00:56:00",63932,5.183,194.2,4.656,0.291,15.7,106.3209,15.45,16.51,30.48,0,110.5,13.3,16.26,156.2
"2010-04-28 00:56:30",63933,5.827,186.4,4.012,0.243,15.72,106.3221,15.46,16.51,30.67,0,110.5,13.3,16.26,148.4
"2010-04-28 00:57:00",63934,6.048,190,6.02,0.993,15.51,106.3218,15.46,16.51,31.28,0,110.6,13.3,16.26,152.0
"2010-04-28 00:57:30",63935,5.509,190.6,3.458,0.282,15.92,106.3248,15.46,16.5,30.85,0,110.5,13.3,16.27,152.6
"2010-04-28 00:58:00",63936,5.171,195.9,7.341,0.363,15.9,106.3251,15.47,16.5,29.56,0,110.5,13.3,16.27,157.9
"2010-04-28 00:58:30",63937,4.002,195.3,8.12,0.557,15.79,106.3061,15.42,16.48,29.99,0,110.5,13.3,16.22,157.3
"2010-04-28 00:59:00",63938,5.106,184.6,5.812,0.276,15.94,106.2934,15.38,16.46,30.04,0,110.5,13.3,16.19,146.6
"2010-04-28 00:59:30",63939,5.517,188.4,3.284,0.323,15.94,106.2943,15.39,16.44,29.86,0,110.5,13.3,16.19,150.4
"2010-04-28 01:00:00",63940,5.478,183.1,1.971,0.375,16.12,106.2946,15.39,16.42,29.07,0,110.5,13.3,16.19,145.1
"2010-04-28 01:00:30",63941,4.156,194,15.17,0.743,15.81,106.2973,15.39,16.4,30.08,0,110.5,13.3,16.20,156.0
"2010-04-28 01:01:00",63942,4.317,201.2,17.57,0.659,15.65,106.297,15.39,16.4,31.3,0,110.5,13.3,16.20,163.2
"2010-04-28 01:01:30",63943,4.561,215.7,9.5,0.451,15.68,106.2988,15.4,16.4,31.79,0,110.5,13.3,16.20,177.7
"2010-04-28 01:02:00",63944,2.587,247.5,15.88,0.793,15.71,106.279,15.35,16.39,31.87,0,110.5,13.3,16.15,209.5
"2010-04-28 01:02:30",63945,3.05,248.4,8.75,0.844,15.65,106.2743,15.34,16.37,32.2,0,110.5,13.3,16.14,210.4
"2010-04-28 01:03:00",63946,2.713,239.2,5.616,0.391,15.61,106.2742,15.34,16.34,32.57,0,110.5,13.3,16.14,201.2
"2010-04-28 01:03:30",63947,3.211,213.9,7.456,0.475,15.92,106.2675,15.32,16.32,31.85,0,110.5,13.3,16.12,175.9
"2010-04-28 01:04:00",63948,4.554,215.8,3.697,0.353,16.1,106.2553,15.29,16.31,30.68,0,110.5,13.3,16.09,177.8
"2010-04-28 01:04:30",63949,4.116,217.9,2.756,0.308,15.98,106.2512,15.28,16.3,30.53,0,110.5,13.3,16.08,179.9
"2010-04-28 01:05:00",63950,3.065,214.3,3.27,0.497,15.93,106.2518,15.28,16.3,30.75,0,110.5,13.3,16.08,176.3
"2010-04-28 01:05:30",63951,3.353,201.3,4.676,0.329,15.91,106.2536,15.28,16.29,30.89,0,110.5,13.31,16.09,163.3
"2010-04-28 01:06:00",63952,3.783,198.7,3.73,0.43,15.97,106.2533,15.28,16.29,31.02,0,110.5,13.31,16.09,160.7
"2010-04-28 01:06:30",63953,3.621,204.3,6.962,0.214,15.79,106.2531,15.28,16.28,31.41,0,110.5,13.31,16.09,166.3
"2010-04-28 01:07:00",63954,3.115,218.7,9.94,0.428,15.76,106.2472,15.27,16.25,31.79,0,110.5,13.31,16.07,180.7
"2010-04-28 01:07:30",63955,2.885,243,5.546,0.356,15.85,106.2294,15.22,16.24,31.81,0,110.5,13.31,16.03,205.0
"2010-04-28 01:08:00",63956,1.972,223,17.31,0.345,15.78,106.2204,15.2,16.24,31.84,0,110.5,13.31,16.00,185.0
"2010-04-28 01:08:30",63957,2.228,224.7,11.94,0.204,15.8,106.2204,15.2,16.23,32.01,0,110.5,13.31,16.00,186.7
"2010-04-28 01:09:00",63958,2.252,228.6,6.78,0.218,15.67,106.2145,15.18,16.2,32.14,0,110.5,13.31,15.99,190.6
"2010-04-28 01:09:30",63959,2.089,222.9,3.48,0.272,15.76,106.1998,15.14,16.18,32.25,0,110.5,13.31,15.95,184.9
"2010-04-28 01:10:00",63960,1.527,224.3,4.966,0.171,15.7,106.1951,15.13,16.18,32.3,0,110.5,13.31,15.94,186.3
"2010-04-28 01:10:30",63961,1.388,248.2,6.799,0.159,15.7,106.1917,15.12,16.17,32.39,0,110.5,13.31,15.93,210.2
"2010-04-28 01:11:00",63962,2.276,263.8,9.98,0.295,15.89,106.1866,15.11,16.14,32.18,0,110.5,13.31,15.92,225.8
"2010-04-28 01:11:30",63963,1.532,291.9,32.64,0.582,15.89,106.1866,15.11,16.14,31.24,0,110.5,13.31,15.92,253.9
"2010-04-28 01:12:00",63964,2.174,220.1,24.49,0.631,16.01,106.1866,15.11,16.14,30.59,0,110.5,13.31,15.92,182.1
"2010-04-28 01:12:30",63965,2.998,198.7,9.3,0.567,15.92,106.1866,15.11,16.13,30.8,0,110.5,13.31,15.92,160.7
"2010-04-28 01:13:00",63966,2.3,207.5,11.46,0.492,15.93,106.1841,15.1,16.12,30.9,0,110.5,13.31,15.91,169.5
"2010-04-28 01:13:30",63967,0.945,205.9,17.53,0.289,15.93,106.1739,15.08,16.1,30.9,0,110.5,13.31,15.88,167.9
"2010-04-28 01:14:00",63968,1.484,221.8,14.48,0.298,15.86,106.1553,15.03,16.08,31.07,0,110.5,13.31,15.84,183.8
"2010-04-28 01:14:30",63969,1.512,197,13.24,0.433,15.81,106.1528,15.02,16.07,31.27,0,110.5,13.32,15.83,159.0
"2010-04-28 01:15:00",63970,2.808,190.6,7.796,0.534,15.85,106.1528,15.02,16.07,31.41,0,110.5,13.32,15.83,152.6
"2010-04-28 01:15:30",63971,3.642,197.2,5.461,0.176,16.02,106.1528,15.02,16.05,31.07,0,110.5,13.31,15.83,159.2
"2010-04-28 01:16:00",63972,3.661,205.3,3.353,0.24,15.9,106.1528,15.02,16.05,30.98,0,110.5,13.32,15.83,167.3
"2010-04-28 01:16:30",63973,3.41,214.2,3.461,0.383,15.75,106.1528,15.02,16.05,31.41,0,110.5,13.31,15.83,176.2
"2010-04-28 01:17:00",63974,3.053,229.2,4.26,0.383,15.81,106.1506,15.02,16.03,31.52,0,110.5,13.31,15.82,191.2
"2010-04-28 01:17:30",63975,3.358,218.8,10.36,0.547,15.89,106.1427,15,16.02,31.49,0,110.5,13.31,15.80,180.8
"2010-04-28 01:18:00",63976,2.642,221.4,7.543,0.361,15.94,106.1387,14.99,16.03,31.29,0,110.5,13.31,15.79,183.4
"2010-04-28 01:18:30",63977,3.491,224.9,5.607,0.858,16.01,106.1249,14.95,16.02,31.21,0,110.5,13.31,15.76,186.9
"2010-04-28 01:19:00",63978,4.023,211.1,3.902,0.196,16.19,106.119,14.94,16,30.54,0,110.5,13.31,15.74,173.1
"2010-04-28 01:19:30",63979,3.941,215.6,4.728,0.217,16.13,106.119,14.94,16,30.46,0,110.5,13.31,15.74,177.6
"2010-04-28 01:20:00",63980,3.687,213.9,4.618,0.262,16.08,106.119,14.94,15.99,30.52,0,110.5,13.31,15.74,175.9
"2010-04-28 01:20:30",63981,4.059,217.9,4.25,0.206,16.06,106.1193,14.94,15.99,30.65,0,110.5,13.31,15.74,179.9
"2010-04-28 01:21:00",63982,3.888,225.1,3.169,0.17,16.06,106.1193,14.94,15.99,30.74,0,110.5,13.32,15.74,187.1
"2010-04-28 01:21:30",63983,3.542,222.5,3.069,0.16,15.96,106.1159,14.93,15.98,30.88,0,110.5,13.32,15.73,184.5
"2010-04-28 01:22:00",63984,3.249,221.2,2.263,0.293,16,106.112,14.92,15.98,31,0,110.5,13.32,15.72,183.2
"2010-04-28 01:22:30",63985,3.456,222,5.307,0.352,15.93,106.1061,14.9,15.96,31.11,0,110.5,13.32,15.71,184.0
"2010-04-28 01:23:00",63986,3.153,223.9,2.732,0.315,15.95,106.0982,14.88,15.96,31.24,0,110.5,13.32,15.69,185.9
"2010-04-28 01:23:30",63987,2.848,220.9,5.273,0.227,15.83,106.0908,14.87,15.97,31.4,0,110.5,13.32,15.67,182.9
"2010-04-28 01:24:00",63988,4.02,220,3.71,0.552,16.06,106.0927,14.87,15.95,31.47,0,110.5,13.32,15.67,182.0
"2010-04-28 01:24:30",63989,4.008,223.3,2.895,0.26,16.06,106.0954,14.88,15.95,31.14,0,110.5,13.32,15.68,185.3
"2010-04-28 01:25:00",63990,3.952,219,2.754,0.292,16.07,106.098,14.88,15.95,31.09,0,110.5,13.33,15.69,181.0
"2010-04-28 01:25:30",63991,3.851,210.7,3.277,0.2,16.04,106.1025,14.9,15.94,31.25,0,110.5,13.33,15.70,172.7
"2010-04-28 01:26:00",63992,3.564,218.3,6.208,0.256,16.03,106.1046,14.9,15.93,31.26,0,110.5,13.33,15.70,180.3
"2010-04-28 01:26:30",63993,3.434,224.9,3.431,0.256,15.99,106.1082,14.91,15.93,31.32,0,110.5,13.33,15.71,186.9
"2010-04-28 01:27:00",63994,3.534,220.9,2.537,0.19,15.97,106.1091,14.91,15.92,31.4,0,110.5,13.33,15.72,182.9
"2010-04-28 01:27:30",63995,3.462,215.6,5.629,0.224,15.98,106.1063,14.91,15.91,31.41,0,110.5,13.33,15.71,177.6
"2010-04-28 01:28:00",63996,3.4,223.8,3.98,0.302,16.02,106.1039,14.9,15.91,31.44,0,110.5,13.33,15.70,185.8
"2010-04-28 01:28:30",63997,3.351,214.9,3.281,0.302,16.05,106.0981,14.88,15.9,31.19,0,110.5,13.33,15.69,176.9
"2010-04-28 01:29:00",63998,3.846,216.9,2.075,0.205,15.98,106.0979,14.88,15.91,31.03,0,110.5,13.33,15.69,178.9
"2010-04-28 01:29:30",63999,3.737,219.7,3.609,0.148,15.98,106.0878,14.86,15.91,31.42,0,110.5,13.33,15.66,181.7
"2010-04-28 01:30:00",64000,3.534,222.5,5.5,0.206,16.02,106.0872,14.86,15.9,31.42,0,110.5,13.33,15.66,184.5
"2010-04-28 01:30:30",64001,3.828,221.3,4.689,0.163,16.04,106.0872,14.86,15.87,31.06,0,110.5,13.33,15.66,183.3
"2010-04-28 01:31:00",64002,3.808,219.7,3.662,0.224,16.02,106.0869,14.86,15.88,31.31,0,110.5,13.33,15.66,181.7
"2010-04-28 01:31:30",64003,3.309,221,2.781,0.239,16.06,106.0872,14.86,15.87,31.28,0,110.5,13.33,15.66,183.0
"2010-04-28 01:32:00",64004,3.463,223.1,3.017,0.236,16.02,106.0872,14.86,15.88,31.06,0,110.5,13.33,15.66,185.1
"2010-04-28 01:32:30",64005,3.797,216.8,2.176,0.207,16.03,106.0867,14.85,15.86,30.98,0,110.5,13.33,15.66,178.8
"2010-04-28 01:33:00",64006,4.196,215.8,4.53,0.208,16.05,106.0816,14.84,15.85,30.99,0,110.5,13.33,15.65,177.8
"2010-04-28 01:33:30",64007,4.105,220.1,5.569,0.254,16.03,106.076,14.83,15.85,31.02,0,110.5,13.33,15.63,182.1
"2010-04-28 01:34:00",64008,4.339,216.6,2.585,0.21,16.14,106.0619,14.79,15.86,31.06,0,110.5,13.33,15.60,178.6
"2010-04-28 01:34:30",64009,4.422,219.3,3.794,0.235,16.11,106.0557,14.78,15.85,30.94,0,110.5,13.33,15.58,181.3
"2010-04-28 01:35:00",64010,4.129,223.1,1.58,0.167,16.16,106.0534,14.77,15.83,30.93,0,110.5,13.33,15.57,185.1
"2010-04-28 01:35:30",64011,4.33,208.4,5.802,0.227,16.09,106.0534,14.77,15.83,31.05,0,110.5,13.33,15.57,170.4
"2010-04-28 01:36:00",64012,4.626,224.6,3.902,0.176,16.12,106.0534,14.77,15.82,31.05,0,110.5,13.33,15.57,186.6
"2010-04-28 01:36:30",64013,4.103,221.2,4.9,0.216,16.07,106.0534,14.77,15.82,30.95,0,110.5,13.33,15.57,183.2
"2010-04-28 01:37:00",64014,3.938,218.4,2.916,0.167,16.07,106.0534,14.77,15.8,30.9,0,110.5,13.33,15.57,180.4
"2010-04-28 01:37:30",64015,3.759,225.9,2.108,0.132,15.97,106.0534,14.77,15.8,31.19,0,110.5,13.33,15.57,187.9
"2010-04-28 01:38:00",64016,4.081,223.4,1.547,0.155,16.05,106.0534,14.77,15.8,31.12,0,110.5,13.33,15.57,185.4
"2010-04-28 01:38:30",64017,4.024,217.7,3.231,0.229,16.01,106.0534,14.77,15.81,31.21,0,110.4,13.33,15.57,179.7
"2010-04-28 01:39:00",64018,3.848,221.7,3.404,0.329,16,106.052,14.77,15.79,31.35,0,110.5,13.33,15.57,183.7
"2010-04-28 01:39:30",64019,4.365,224.6,5.421,0.394,16.17,106.0475,14.75,15.78,30.73,0,110.5,13.33,15.56,186.6
"2010-04-28 01:40:00",64020,3.874,221,6.689,0.336,16,106.045,14.75,15.77,30.93,0,110.4,13.34,15.55,183.0
"2010-04-28 01:40:30",64021,3.733,221.6,4.503,0.324,16,106.0438,14.75,15.78,31.06,0,110.4,13.34,15.55,183.6
"2010-04-28 01:41:00",64022,3.888,218,7.27,0.36,16.08,106.0357,14.72,15.78,31.11,0,110.4,13.34,15.53,180.0
"2010-04-28 01:41:30",64023,3.738,228.8,4.606,0.263,16.11,106.0247,14.7,15.78,30.99,0,110.4,13.34,15.50,190.8
"2010-04-28 01:42:00",64024,4.166,220,5.961,0.316,16.04,106.0196,14.68,15.77,30.91,0,110.4,13.34,15.49,182.0
"2010-04-28 01:42:30",64025,4.135,225.6,6.493,0.512,16.02,106.0196,14.68,15.76,31.06,0,110.4,13.34,15.49,187.6
"2010-04-28 01:43:00",64026,4.68,228.7,3.91,0.17,16.04,106.0196,14.68,15.76,31.2,0,110.4,13.34,15.49,190.7
"2010-04-28 01:43:30",64027,4.162,222.4,6.039,0.28,15.99,106.0196,14.68,15.75,31.29,0,110.4,13.34,15.49,184.4
"2010-04-28 01:44:00",64028,4.304,216.5,5.167,0.396,15.95,106.0208,14.69,15.76,31.39,0,110.4,13.34,15.49,178.5
"2010-04-28 01:44:30",64029,4.821,221.2,5.083,0.333,16,106.0214,14.69,15.75,31.38,0,110.4,13.34,15.49,183.2
"2010-04-28 01:45:00",64030,4.968,219,4.991,0.303,15.99,106.0229,14.69,15.75,31.33,0,110.4,13.34,15.49,181.0
"2010-04-28 01:45:30",64031,4.126,224.6,3.097,0.338,15.95,106.0256,14.7,15.73,31.41,0,110.4,13.34,15.50,186.6
"2010-04-28 01:46:00",64032,4.053,220.3,5.496,0.255,15.95,106.0289,14.71,15.73,31.51,0,110.4,13.34,15.51,182.3
"2010-04-28 01:46:30",64033,3.904,220.6,4.931,0.443,15.89,106.0262,14.7,15.73,31.63,0,110.4,13.34,15.50,182.6
"2010-04-28 01:47:00",64034,4.307,220.5,6.223,0.318,15.93,106.0273,14.7,15.73,31.69,0,110.4,13.34,15.51,182.5
"2010-04-28 01:47:30",64035,4.464,225.4,4.788,0.473,15.97,106.0292,14.71,15.72,31.65,0,110.4,13.34,15.51,187.4
"2010-04-28 01:48:00",64036,5,223.7,3.135,0.197,16.08,106.027,14.7,15.72,31.48,0,110.4,13.34,15.51,185.7
"2010-04-28 01:48:30",64037,4.796,220.5,2.942,0.316,16.11,106.0188,14.68,15.71,31.22,0,110.4,13.34,15.48,182.5
"2010-04-28 01:49:00",64038,4.932,222.7,2.69,0.332,16.08,106.0096,14.66,15.71,31.06,0,110.4,13.34,15.46,184.7